Regional Weather Roundup
Issued by NWS Albany, NY

Current Version | Previous Version | Text Only | Print | Product List | Glossary On
Versions: 1 2 3 4 5 6 7 8 9 10 11 12 13 14 15 16 17 18 19 20 21 22 23 24 25 26 27 28 29 30 31 32 33 34 35 36 37 38 39 40 41 42 43 44 45 46 47 48 49 50
000
ASUS41 KALY 081010
RWRALY

NEW YORK STATE HOURLY WEATHER ROUNDUP
NATIONAL WEATHER SERVICE ALBANY NY
500 AM EST MON MAR 08 2021

NOTE: "FAIR" INDICATES FEW OR NO CLOUDS BELOW 12,000 FEET WITH NO
SIGNIFICANT WEATHER AND/OR NO OBSTRUCTIONS TO VISIBILITY.

NYZ032-033-038>043-046>054-057>066-NYZ062>081-082-084-081100-
EAST


CITY           SKY/WX    TMP DP  RH WIND       PRES   REMARKS
ALBANY         CLEAR     13   3  64 NW6       30.44R WCI   4
GLENS FALLS    CLEAR     12   3  67 NW5       30.43R WCI   4
POUGHKEEPSIE   CLEAR     16   8  71 CALM      30.42R
NEWBURGH       CLEAR     19  10  68 CALM      30.39R
MONTGOMERY     CLEAR     17  11  77 CALM      30.39R
WHITE PLAINS   CLEAR     19   8  62 NW8       30.38R WCI   9
ISLIP          CLEAR     24  12  60 N6        30.40R WCI  17
NEW YORK CITY  CLEAR     29   8  41 N8        30.41S WCI  21
CENTRAL PARK   CLEAR     27   8  44 CALM      30.43R
$$

NYZ005>009-017-018-044>046-055-056-081100-
CENTRAL


CITY           SKY/WX    TMP DP  RH WIND       PRES   REMARKS
FULTON         CLEAR      6   2  83 CALM      30.44R
SYRACUSE       CLEAR     10   4  76 E3        30.45R
ROME           CLEAR      2  -3  80 CALM      30.46R
ELMIRA         PTCLDY    11   2  67 CALM      30.43R
BINGHAMTON     CLEAR     12   4  70 W5        30.35R WCI   4
MONTICELLO     CLEAR     11   5  77 W3        30.35R
$$

NYZ026>034-041>043-087-081100-
NORTH


CITY           SKY/WX    TMP DP  RH WIND       PRES   REMARKS
WATERTOWN      CLEAR      2  -2  83 E3        30.44R
FORT DRUM      NOT AVBL
OGDENSBURG     FAIR      -8 -13  77 CALM      30.42R
MASSENA        CLEAR     -6 -12  75 CALM      30.45R
SARANAC LAKE   CLEAR    -16 -21  78 CALM      30.30R
PLATTSBURGH    CLEAR     10   2  69 SW3       30.41S
$$

NYZ001>004-010>016-019>021-085-081100-
WEST


CITY           SKY/WX    TMP DP  RH WIND       PRES   REMARKS
NIAGARA FALLS  PTCLDY    17  10  74 CALM      30.43S
BUFFALO        PTCLDY    19  12  74 S5        30.43R WCI  12
DUNKIRK        PTCLDY    22  13  68 SW7       30.45R WCI  13
JAMESTOWN      PTCLDY   N/A N/A N/A MISG      30.39R
WELLSVILLE     CLEAR     15   9  76 W5        30.35R WCI   8
ROCHESTER      PTCLDY    15  13  91 S3        30.44R
PENN YAN       CLEAR     18  13  80 SW8       30.41R WCI   8
$$

             KEY
       WCI = WIND CHILL INDEX
       VSB = VISIBILITY
       HX  = HEAT INDEX
$$




USA.gov is the U.S. government's official web portal to all federal, state and local government web resources and services.